Flag for American Samoa Weather past 2 weeks in Pago Pago, American Samoa

Now
79 °F

Sprinkles. Cloudy.


Feels Like: 82 °F
Forecast: 78 / 83 °F
Wind: 16 mph from Southeast

Location: Pago Pago / Int. Airp.

Current Time: Jul 7, 2015 at 3:31:16 PM

Latest Report: Jul 7, 2015 at 2:50 PM


Visibility: 10 mi

Pressure: 29.88 "Hg

Humidity: 89%

Dew point: 75 °F

Location of Pago PagoLocation

Historic Weather in Pago Pago — Graph

°F

Pago Pago temperature yesterday

Maximum temperature yesterday: 84 °F (at 12:53 PM)
Minimum temperature yesterday: 75 °F (at 4:51 AM)
Average temperature yesterday: 81 °F

Past Weeks' High & Low Weather Summary

 TemperatureHumidityPressure
High85 °F (Jun 23, 1:52 PM)100% (Jun 24, 10:50 PM)29.97 "Hg (Jun 24, 10:50 PM)
Low74 °F (Jun 24, 10:50 PM)65% (Jun 26, 10:50 PM)29.57 "Hg (Jul 5, 1:00 AM)
Average79 °F82%29.88 "Hg
* Reported Jun 22 1:53 PM — Jul 7 1:50 PM, Pago Pago, Weather by CustomWeather, © 2015

Note: Actual official high and low records may vary slightly from our data, if they occured in-between our weather recording intervals... More about our weather records

Advertising

Pago Pago weather history for previous 24 hours

 ConditionsComfort  
Time TempWeatherWind HumidityBarometerVisibility
1:50 PM
Tue, Jul 7
82 °FSprinkles. Cloudy.17 mph84%29.90 "Hg10 mi
1:00 PM81 °FSprinkles. Cloudy.16 mph89%29.91 "Hg10 mi
12:50 PM81 °FSprinkles. Cloudy.16 mph89%29.91 "Hg10 mi
12:00 PM81 °FSprinkles. Mostly cloudy.9 mph85%29.93 "Hg10 mi
11:52 AM81 °FSprinkles. Mostly cloudy.9 mph85%29.93 "Hg10 mi
11:00 AM83 °FBroken clouds.10 mph82%29.95 "Hg11 mi
10:00 AM82 °FBroken clouds.16 mph81%29.96 "Hg12 mi
9:57 AM82 °FBroken clouds.16 mph79%29.96 "Hg12 mi
9:00 AM81 °FCloudy.16 mph84%29.96 "Hg12 mi
8:59 AM81 °FCloudy.16 mph84%29.96 "Hg12 mi
8:00 AM79 °FSprinkles. Cloudy.17 mph88%29.93 "Hg12 mi
7:52 AM79 °FSprinkles. Cloudy.17 mph88%29.93 "Hg12 mi
7:00 AM80 °FBroken clouds.15 mph84%29.91 "Hg10 mi
6:53 AM80 °FBroken clouds.15 mph84%29.91 "Hg10 mi
6:00 AM80 °FPartly cloudy.16 mph82%29.90 "Hg10 mi
5:50 AM80 °FPartly cloudy.16 mph82%29.90 "Hg10 mi
4:53 AM77 °FPassing clouds.15 mph83%29.90 "Hg10 mi
3:56 AM79 °FPassing clouds.15 mph80%29.89 "Hg10 mi
3:00 AM80 °FPassing clouds.16 mph82%29.90 "Hg10 mi
2:55 AM80 °FPassing clouds.16 mph82%29.90 "Hg10 mi
2:00 AM80 °FPartly cloudy.17 mph81%29.91 "Hg10 mi
1:52 AM80 °FPartly cloudy.17 mph81%29.91 "Hg10 mi
1:00 AM80 °FPassing clouds.16 mph80%29.91 "Hg10 mi
12:53 AM80 °FPassing clouds.16 mph80%29.91 "Hg10 mi
12:00 AM80 °FPassing clouds.16 mph79%29.91 "Hg10 mi
11:50 PM
Mon, Jul 6
80 °FPassing clouds.16 mph79%29.91 "Hg10 mi
11:00 PM80 °FPassing clouds.15 mph80%29.93 "Hg10 mi
10:51 PM80 °FPassing clouds.15 mph80%29.93 "Hg10 mi
10:00 PM80 °FPassing clouds.13 mph79%29.93 "Hg10 mi
9:50 PM80 °FPassing clouds.13 mph79%29.93 "Hg10 mi
9:00 PM80 °FPassing clouds.15 mph79%29.93 "Hg10 mi
8:50 PM80 °FPassing clouds.15 mph79%29.93 "Hg10 mi
8:00 PM80 °FPassing clouds.10 mph79%29.90 "Hg10 mi
7:50 PM80 °FPassing clouds.10 mph79%29.90 "Hg10 mi
7:00 PM80 °FPassing clouds.12 mph80%29.88 "Hg12 mi
6:51 PM80 °FPassing clouds.12 mph80%29.88 "Hg12 mi
6:00 PM80 °FScattered clouds.13 mph79%29.85 "Hg12 mi
5:50 PM80 °FScattered clouds.13 mph79%29.85 "Hg12 mi
5:00 PM81 °FScattered clouds.13 mph78%29.85 "Hg12 mi
4:50 PM81 °FScattered clouds.13 mph78%29.85 "Hg12 mi
4:00 PM83 °FScattered clouds.15 mph73%29.85 "Hg12 mi
3:50 PM83 °FScattered clouds.15 mph73%29.85 "Hg12 mi
3:00 PM83 °FScattered clouds.No wind73%29.85 "Hg12 mi
Weather by CustomWeather, © 2015

See weather overviewHow to use our weather pages